Lexington Weather

Lexington, Massachusetts, USA

49°F
12/8/2022 2:56pm 
  • Lexington Conditions: Clear
  • Temperature: 48.6°F / 9.2°CColder 1.2°F than last hour.
  • Dew Point: 35.8°FIncreased 0.6°Fsince last hour.
  • Relative Humidity: 61%Increased 4.0% since last hour.
  • Wind: Wind from NNW NNW 3 mph, 10-min avg: 2 mph, gust: 8 mph
  • Barometer: 30.07 in Steady
  • Visibility: 10 miles
  • Rain Today: 0.00 in
  •   

Warning: Undefined variable $rc in /homepages/6/d276339138/htdocs/weather/20190804/ssi/nwsProduct.php on line 323

Warning: Undefined variable $rc in /homepages/6/d276339138/htdocs/weather/20190804/ssi/nwsProduct.php on line 325

Warning: Undefined variable $rc in /homepages/6/d276339138/htdocs/weather/20190804/ssi/nwsProduct.php on line 323

Warning: Undefined variable $rc in /homepages/6/d276339138/htdocs/weather/20190804/ssi/nwsProduct.php on line 325

Warning: Undefined variable $rc in /homepages/6/d276339138/htdocs/weather/20190804/ssi/nwsProduct.php on line 323

Warning: Undefined variable $rc in /homepages/6/d276339138/htdocs/weather/20190804/ssi/nwsProduct.php on line 325

Warning: Undefined variable $rc in /homepages/6/d276339138/htdocs/weather/20190804/ssi/nwsProduct.php on line 323

Warning: Undefined variable $rc in /homepages/6/d276339138/htdocs/weather/20190804/ssi/nwsProduct.php on line 325

Warning: Undefined variable $rc in /homepages/6/d276339138/htdocs/weather/20190804/ssi/nwsProduct.php on line 323

Warning: Undefined variable $rc in /homepages/6/d276339138/htdocs/weather/20190804/ssi/nwsProduct.php on line 325

Warning: Undefined variable $rc in /homepages/6/d276339138/htdocs/weather/20190804/ssi/nwsProduct.php on line 323

Warning: Undefined variable $rc in /homepages/6/d276339138/htdocs/weather/20190804/ssi/nwsProduct.php on line 325

Warning: Undefined variable $rc in /homepages/6/d276339138/htdocs/weather/20190804/ssi/nwsProduct.php on line 323

Warning: Undefined variable $rc in /homepages/6/d276339138/htdocs/weather/20190804/ssi/nwsProduct.php on line 325

Regional Weather Roundup
for Boston, MA

        
000
ASUS41 KBOX 081910
RWRBOX

REGIONAL WEATHER ROUNDUP
NATIONAL WEATHER SERVICE BOSTON/NORTON MA
200 PM EST THU DEC 08 2022

NOTE:  "FAIR" INDICATES FEW OR NO CLOUDS BELOW 12,000 FEET WITH NO 
SIGNIFICANT WEATHER AND/OR OBSTRUCTIONS TO VISIBILITY.

MAZALL-082000-
EASTERN MASSACHUSETTS
  
CITY           SKY/WX    TMP DP  RH WIND       PRES   REMARKS
BOSTON         MOSUNNY   52  30  43 NW17G25   30.11S                  
BEVERLY        MOSUNNY   49  32  52 NW16G24   30.10S                  
LAWRENCE       SUNNY     49  30  48 NW16G26   30.14R                  
BEDFORD        SUNNY     53  32  44 NW14G21   30.10F                  
NORWOOD        SUNNY     54  32  43 NW12G22   30.11S                  
MARSHFIELD       N/A     52  32  46 N13       30.10R                  
PLYMOUTH       SUNNY     53  33  46 NW12G21   30.09R                  
TAUNTON          N/A    N/A N/A N/A MISG      30.10S                  
NEW BEDFORD    SUNNY     54  35  48 NW14      30.09R                  
$$

MAZALL-082000-
CAPE COD AND THE ISLANDS
  
CITY           SKY/WX    TMP DP  RH WIND       PRES   REMARKS
FALMOUTH       NOT AVBL                                               
HYANNIS        SUNNY     50  37  61 N14G26    30.07R                  
CHATHAM        SUNNY     52  36  54 NW7       30.09R                  
PROVINCETOWN   MOSUNNY   48  38  68 N15G22    30.10S                  
NANTUCKET      SUNNY     53  40  61 N16       30.07F                  
MARTHAS VNYRD  SUNNY     55  37  50 NW15      30.08S                  
$$
 
MAZALL-082000-
CENTRAL AND WESTERN MASSACHUSETTS
  
CITY           SKY/WX    TMP DP  RH WIND       PRES   REMARKS
WORCESTER      MOSUNNY   48  31  51 NW20      30.10S                  
FITCHBURG      SUNNY     50  27  40 NW16G24   30.13S                  
ORANGE         PTSUNNY   48  31  51 NW9       30.17R                  
SPRINGFIELD    PTSUNNY   48  35  61 N7        30.15R                  
WESTFIELD      CLOUDY    48  31  51 NW9       30.18R                  
NORTH ADAMS    MOSUNNY   47  32  56 W8        30.19S                  
PITTSFIELD     CLOUDY    43  33  68 NW7       30.17S                  
$$
 
RIZALL-082000-
RHODE ISLAND
  
CITY           SKY/WX    TMP DP  RH WIND       PRES   REMARKS
PROVIDENCE     PTSUNNY   52  34  50 NW16G24   30.12R                  
NEWPORT        MOSUNNY   51  36  56 NW13G23   30.10R                  
BLOCK ISLAND   PTSUNNY   51  35  54 N9        30.12R                  
SMITHFIELD     MOSUNNY   49  33  54 NW17G25   30.11R                  
WESTERLY       PTSUNNY   52  34  50 NW10G23   30.12R                  
$$
 
CTZALL-082000-
CONNECTICUT
  
CITY           SKY/WX    TMP DP  RH WIND       PRES   REMARKS
BRADLEY INTL   PTSUNNY   50  32  50 N14       30.17S                  
HARTFORD       PTSUNNY   52  32  46 N13G18    30.18S                  
BRIDGEPORT     MOSUNNY   53  35  50 NW15G22   30.17S                  
DANBURY        PTSUNNY   51  33  50 NW9       30.19S                  
GROTON         MOSUNNY   54  35  48 NW20G30   30.12S                  
NEW HAVEN      PTSUNNY   55  34  45 N22G30    30.16F                  
CHESTER        FAIR      52  34  50 NW10G20   30.14F                  
MERIDEN        PTSUNNY   52  32  46 N14       30.17F                  
WILLIMANTIC    MOSUNNY   50  31  48 NW13G23   30.15S                  
OXFORD         PTSUNNY   48  33  56 NW17G24   30.18S                  
$$

MEZ002-015-021-024-NHZ003-005-008-011-012-014-VTZ005-008-082000-
NORTHERN NEW ENGLAND
  
CITY           SKY/WX    TMP DP  RH WIND       PRES   REMARKS
PORTLAND ME    MOSUNNY   47  30  51 N13G22    30.11R                  
BANGOR ME      PTSUNNY   45  37  73 NW15      30.06S                  
CONCORD NH     CLOUDY    44  31  60 N10G22    30.16R                  
MANCHESTER NH  PTSUNNY   49  29  46 NW18G28   30.13S                  
NASHUA NH      SUNNY     49  30  48 N20G29    30.13S                  
PORTSMOUTH NH  MOSUNNY   47  30  51 NW15G25   30.11R                  
JAFFREY NH     PTSUNNY   47  30  51 N9G24     30.13S                  
KEENE NH       MOSUNNY   45  28  51 NW7         N/A                   
BURLINGTON VT  PTSUNNY   39  28  64 N15       30.26S WCI  31          
MT. WASHINGTON FOG       16  16 100 NW33        N/A  VSB 1/16WCI  -5  
$$

NYZ052-076-082000-
EASTERN NEW YORK
  
CITY           SKY/WX    TMP DP  RH WIND       PRES   REMARKS
ALBANY         PTSUNNY   48  34  58 W8        30.22S                  
NEW YORK CITY  PTSUNNY   53  35  50 NW15      30.19F                  
$$
 
ANZALL-082000-
MARINE OBSERVATIONS
  
STATION/POSITION TIME  TEMP    WIND        PRES    VSBY  WAVE
                       AIR SEA DIR/SP/G                  HT/PER
                 (UTC) (F)     (DEG/KT/KT) (MB)    (MI)  (FT/S)
BOSTON BUOY      1850      51  330/ 16/ 21 1019.5S         4/11
BUZZARDS BAY     1800   51     350/ 21/ 23 1018.9F
NANTUCKET SOUND  1850   50 49  360/ 16/ 19 1018.4F         2/ 3
MASS BAY-STELLWA 1704   48 50  310/ 14/ 19 1018.6R  1 7/8  5/11
ISLE OF SHOALS   1800   47     300/ 20/ 22 1018.3F
S OF BLOCK IS    1856      55                N/A           5/11
$$

......................KEY.........................
  SKY/WX - SKY CONDITION/PRESENT WEATHER
  TMP    - TEMPERATURE IN FAHRENHEIT
  DWPT   - DEWPOINT IN FAHRENHEIT
  RH     - RELATIVE HUMIDITY IN PERCENT
  WIND   - DIRECTION AND SPEED IN MPH
  PRES   - MEAN SEA LEVEL PRESSURE IN INCHES OF HG
  WCI    - WIND CHILL INDEX
  VSB    - VISIBILITY IN MILES
  HX     - HEAT INDEX
  TC     - TEMPERATURE IN CELSIUS
  VRB    - VARIABLE WIND DIRECTION
  N/A    - NOT AVAILABLE
  
      

Other recent Regional Weather Roundups

Thu Dec 8, 1:10pm

Thu Dec 8, 12:10pm

Thu Dec 8, 11:10am

Thu Dec 8, 10:10am

Thu Dec 8, 9:10am

Thu Dec 8, 8:10am

Thu Dec 8, 7:10am

Thu Dec 8, 6:10am

Thu Dec 8, 5:10am

Thu Dec 8, 4:10am

Thu Dec 8, 3:10am

Thu Dec 8, 2:10am

Thu Dec 8, 1:10am

Thu Dec 8, 12:10am

Wed Dec 7, 11:10pm

Wed Dec 7, 10:10pm

Wed Dec 7, 9:10pm

Wed Dec 7, 8:10pm

Wed Dec 7, 7:10pm

Wed Dec 7, 6:10pm

Wed Dec 7, 5:10pm

Wed Dec 7, 4:10pm

Wed Dec 7, 3:10pm

Wed Dec 7, 2:10pm

Wed Dec 7, 1:10pm

Wed Dec 7, 12:10pm

Wed Dec 7, 11:10am

Wed Dec 7, 10:10am

Wed Dec 7, 9:10am

Wed Dec 7, 8:10am

Wed Dec 7, 7:10am

Wed Dec 7, 6:10am

Wed Dec 7, 5:10am

Wed Dec 7, 4:10am

Wed Dec 7, 3:10am

Wed Dec 7, 2:10am

Wed Dec 7, 1:10am

Wed Dec 7, 12:10am

Tue Dec 6, 11:10pm

Tue Dec 6, 10:10pm

Tue Dec 6, 9:10pm

Tue Dec 6, 8:10pm

Tue Dec 6, 7:10pm

Tue Dec 6, 6:10pm

Tue Dec 6, 5:10pm

Tue Dec 6, 4:10pm

Tue Dec 6, 3:10pm

Tue Dec 6, 2:10pm

Tue Dec 6, 1:10pm

Tue Dec 6, 12:10pm

Tue Dec 6, 11:10am

Tue Dec 6, 10:10am

Tue Dec 6, 9:10am

Tue Dec 6, 8:10am

Tue Dec 6, 7:10am

Tue Dec 6, 6:10am

Tue Dec 6, 5:10am

Tue Dec 6, 4:10am

Tue Dec 6, 3:10am

Tue Dec 6, 2:10am

Tue Dec 6, 1:10am

Tue Dec 6, 12:10am

Mon Dec 5, 11:10pm

Mon Dec 5, 10:10pm

Mon Dec 5, 9:10pm

Mon Dec 5, 8:10pm

Mon Dec 5, 7:10pm

Mon Dec 5, 6:10pm

Mon Dec 5, 5:10pm

Mon Dec 5, 4:10pm

Mon Dec 5, 3:10pm

Mon Dec 5, 2:10pm

Mon Dec 5, 1:10pm

Mon Dec 5, 12:10pm

Mon Dec 5, 11:10am

Mon Dec 5, 10:10am

Mon Dec 5, 9:10am

Mon Dec 5, 8:10am

Mon Dec 5, 7:10am

Mon Dec 5, 6:10am

Mon Dec 5, 5:10am

Mon Dec 5, 4:10am

Mon Dec 5, 3:10am

Mon Dec 5, 2:10am

Mon Dec 5, 1:10am

Mon Dec 5, 12:10am

Sun Dec 4, 11:10pm

Sun Dec 4, 10:10pm

Sun Dec 4, 9:10pm

Sun Dec 4, 8:10pm

Sun Dec 4, 7:10pm

Sun Dec 4, 6:10pm

Sun Dec 4, 5:10pm

Sun Dec 4, 4:10pm

Sun Dec 4, 3:10pm

Sun Dec 4, 2:10pm

Sun Dec 4, 1:10pm

Sun Dec 4, 12:10pm

Sun Dec 4, 11:10am

Sun Dec 4, 10:10am

Sun Dec 4, 9:10am

Sun Dec 4, 8:10am

Sun Dec 4, 7:10am

Sun Dec 4, 6:10am

Sun Dec 4, 5:10am

Sun Dec 4, 4:10am

Sun Dec 4, 3:10am

Sun Dec 4, 2:10am

Sun Dec 4, 1:10am

Sun Dec 4, 12:10am

Sat Dec 3, 11:10pm

Sat Dec 3, 10:10pm

Sat Dec 3, 9:10pm

Sat Dec 3, 8:10pm

Sat Dec 3, 7:10pm

Sat Dec 3, 6:10pm

Sat Dec 3, 5:10pm

Sat Dec 3, 4:10pm

Sat Dec 3, 3:10pm

Sat Dec 3, 2:10pm

Sat Dec 3, 1:10pm

Sat Dec 3, 12:10pm

Sat Dec 3, 11:10am

Sat Dec 3, 10:10am

Sat Dec 3, 9:10am

Sat Dec 3, 8:10am

Sat Dec 3, 7:10am

Sat Dec 3, 6:10am

Sat Dec 3, 5:10am

Sat Dec 3, 4:10am

Sat Dec 3, 3:10am

Sat Dec 3, 2:10am

Sat Dec 3, 1:10am

Sat Dec 3, 12:10am

Fri Dec 2, 11:10pm

Fri Dec 2, 10:10pm

Fri Dec 2, 9:10pm

Fri Dec 2, 8:10pm

Fri Dec 2, 7:10pm

Fri Dec 2, 6:10pm

Fri Dec 2, 5:10pm

Fri Dec 2, 4:10pm

Fri Dec 2, 3:10pm

Fri Dec 2, 2:10pm

Fri Dec 2, 1:10pm

Fri Dec 2, 12:10pm

Fri Dec 2, 11:10am

Fri Dec 2, 10:10am

Fri Dec 2, 9:10am

Fri Dec 2, 8:10am

Fri Dec 2, 7:10am

Fri Dec 2, 6:10am

Fri Dec 2, 5:10am

Fri Dec 2, 4:10am

Fri Dec 2, 3:10am

Fri Dec 2, 2:10am

Fri Dec 2, 1:10am

Fri Dec 2, 12:10am

Thu Dec 1, 11:10pm

Thu Dec 1, 10:10pm

Thu Dec 1, 9:10pm

Thu Dec 1, 8:10pm

Thu Dec 1, 7:10pm

Thu Dec 1, 6:10pm

Thu Dec 1, 5:10pm

Thu Dec 1, 4:10pm

Thu Dec 1, 3:10pm

Meta data:

ID: 302dc0fa-04bf-45f9-a605-4d366e747fe5
Link: https://api.weather.gov/products/302dc0fa-04bf-45f9-a605-4d366e747fe5